This is the latest recevied weather packets stored in our database for station/object LA3SP-1. If no packets are shown the sender has not sent any weather packets the latest 10 day(s).
| Time | Temp. | Humidity | Pressure | Rain* | Wind** | Luminosity | Snow |
|---|---|---|---|---|---|---|---|
| 1777798450 | 7.22° C | 56% | 1005.5 hPa | 0 mm | - | - | - |
| 1777797946 | 6.67° C | 57% | 1005.5 hPa | 0 mm | - | - | - |
| 1777797849 | 6.67° C | 57% | 1005.6 hPa | 0 mm | - | - | - |
| 1777797247 | 6.67° C | 57% | 1005.5 hPa | 0 mm | - | - | - |
| 1777796646 | 7.22° C | 60% | 1005.6 hPa | 0 mm | - | - | - |
| 1777795443 | 5.56° C | 64% | 1005.8 hPa | 0 mm | - | - | - |
| 1777794842 | 3.89° C | 67% | 1005.9 hPa | 0 mm | - | - | - |
| 1777794241 | 3.33° C | 67% | 1005.8 hPa | 0 mm | - | - | - |
| 1777793639 | 2.78° C | 68% | 1005.9 hPa | 0 mm | - | - | - |
| 1777793038 | 2.22° C | 70% | 1005.8 hPa | 0 mm | - | - | - |
| 1777791835 | 1.11° C | 73% | 1005.7 hPa | 0 mm | - | - | - |
| 1777791234 | 1.11° C | 74% | 1005.7 hPa | 0 mm | - | - | - |
| 1777790632 | 0.56° C | 75% | 1005.7 hPa | 0 mm | - | - | - |
| 1777790031 | 0° C | 76% | 1005.6 hPa | 0 mm | - | - | - |
| 1777789429 | -0.56° C | 77% | 1005.6 hPa | 0 mm | - | - | - |
| 1777788828 | -1.11° C | 78% | 1005.5 hPa | 0 mm | - | - | - |
| 1777787625 | -1.67° C | 79% | 1005.6 hPa | 0 mm | - | - | - |
| 1777787024 | -1.67° C | 79% | 1005.4 hPa | 0 mm | - | - | - |
| 1777786476 | -1.67° C | 79% | 1005.5 hPa | 0 mm | - | - | - |
| 1777786422 | -1.67° C | 79% | 1005.5 hPa | 0 mm | - | - | - |
| 1777785219 | -1.67° C | 79% | 1005.5 hPa | 0 mm | - | - | - |
| 1777784673 | -1.67° C | 79% | 1005.5 hPa | 0 mm | - | - | - |
| 1777784618 | -1.67° C | 79% | 1005.5 hPa | 0 mm | - | - | - |
| 1777782814 | -1.67° C | 79% | 1005.5 hPa | 0 mm | - | - | - |
| 1777782213 | -1.67° C | 79% | 1005.4 hPa | 0 mm | - | - | - |
* Rain latest 24 hours (hover to see other rain measurements)
** Current wind speed in m/s (hover to see current wind gust speed)